Location: Ripley
(48.3812°N, 115.4473°W)
Time: 11:10:26
(UTC+00:00)

AIST 2D - Pass Details

Date: 06 July 2022
Orbit: 433 x 444 km, 97.0° (Epoch: 09 August)

Event Time Altitude Azimuth Distance (km) Brightness Sun altitude
Rises 04:58:16 0° 18° (NNE) 2,430 ? -9.6°
Reaches altitude 10° 05:00:22 10° 26° (NNE) 1,558 ? -9.8°
Maximum altitude 05:03:33 41° 98° (E) 653 ? -10.1°
Enters shadow 05:06:12 14° 167° (SSE) 1,351 ? -10.4°
